Theta_e
302 302 303 303 303 303 304 304 304 304 303 302 299 299 295 295 292 301 305 306 304 298 291 292 291 291 293 296 294 295 294 293 295 294 297 295 297 295 294 294 293 296 295 295 295 295 293 294 294 297 296 298 302 303 304 304 302 301 298 300 302 306 297 293 295 298 299 302 303 304 303 302 298 300 301 298 295 297 295 294 297 291 294 291 290 287 290
303 303 303 303 303 303 303 304 304 304 304 302 301 295 295 297 295 296 304 306 303 296 286 286 289 292 293 293 293 294 293 292 293 293 296 294 294 293 294 296 297 295 299 298 294 298 292 297 296 297 299 299 306 305 305 304 300 299 300 296 304 294 300 296 290 290 293 295 298 298 302 301 298 299 301 301 301 300 301 300 299 291 293 292 289 285 289
303 303 303 304 304 304 304 304 304 304 304 305 302 295 297 298 299 298 299 303 301 294 296 292 290 291 290 290 290 291 291 294 294 294 294 297 296 294 294 296 299 297 299 298 299 299 296 295 301 297 299 301 305 306 306 304 301 304 306 305 306 299 297 296 288 284 282 282 283 286 290 296 300 301 299 302 299 299 297 291 294 288 296 296 290 289 291
303 303 304 304 304 304 304 304 304 304 304 304 303 298 297 294 285 294 297 301 300 300 303 299 293 290 289 286 289 290 288 293 296 297 296 297 297 297 296 298 298 297 297 297 296 296 299 297 297 298 299 301 304 305 306 305 305 308 309 307 307 299 301 299 298 291 289 290 294 298 300 298 295 297 299 299 301 301 303 298 292 289 295 292 298 295 289
303 303 304 304 304 304 304 304 304 304 303 304 303 298 297 299 290 290 289 298 298 296 297 295 291 287 291 284 290 288 289 291 293 299 295 297 296 296 297 296 296 296 296 295 295 297 296 299 298 298 299 302 304 307 306 307 308 307 305 308 305 302 295 297 298 296 295 297 298 300 301 298 298 297 297 298 298 300 302 292 291 299 294 288 296 296 290
304 304 304 304 304 304 305 305 304 304 303 303 303 299 301 292 295 299 301 292 289 290 291 294 290 291 292 289 294 292 291 292 290 293 296 298 299 293 296 297 298 298 298 297 293 295 295 296 295 300 301 301 303 303 306 304 306 306 304 308 305 300 292 295 297 294 296 298 299 300 299 299 298 299 299 298 300 301 299 299 301 299 291 290 296 296 293
303 303 304 304 304 305 305 305 304 303 302 303 304 299 302 301 300 302 303 293 295 295 294 295 292 292 293 293 293 291 292 291 293 291 292 293 295 296 290 296 298 298 298 298 297 297 292 289 299 300 300 301 301 300 301 303 306 305 305 305 306 301 294 297 298 296 297 297 298 299 297 297 297 297 298 299 301 300 301 300 302 302 300 300 297 296 293
303 303 303 304 304 304 305 305 304 302 301 305 304 301 298 297 298 295 303 301 297 297 295 295 294 292 296 289 293 294 292 290 289 293 293 290 294 297 294 296 298 300 299 298 297 298 302 300 295 303 302 301 303 300 301 299 304 305 303 303 304 301 291 297 297 294 294 296 297 298 298 297 294 295 297 298 298 298 299 299 299 299 298 298 296 291 288
303 302 303 303 304 304 305 305 304 302 302 306 304 301 301 301 304 303 299 294 297 297 293 295 294 292 294 291 294 294 293 290 292 292 296 294 295 298 296 298 299 301 301 299 297 300 302 302 302 302 302 297 299 300 300 303 299 301 302 303 303 302 293 298 297 291 290 295 296 296 296 295 292 291 293 294 295 294 295 294 297 297 293 293 291 287 285
302 302 303 303 303 304 304 305 304 303 303 304 302 300 305 305 307 306 301 292 293 295 293 295 295 290 295 295 295 293 294 295 294 289 295 297 296 297 300 301 300 299 299 296 298 301 302 302 302 301 301 302 301 302 301 303 302 301 301 304 299 300 296 292 294 290 288 294 297 296 296 295 290 287 289 293 294 294 295 297 298 298 296 290 288 290 290
302 302 302 303 303 304 304 304 305 303 305 302 301 301 303 302 302 303 303 293 292 295 294 294 293 294 295 295 294 296 296 296 297 292 289 295 295 297 299 300 298 296 297 298 302 304 303 304 303 304 304 302 301 302 303 302 302 303 302 302 301 301 299 295 299 289 288 293 295 297 292 285 286 291 294 294 294 294 293 293 295 297 298 296 298 293 292
302 302 302 303 303 303 304 304 304 304 303 305 304 302 303 303 303 303 298 292 292 297 294 292 292 294 293 294 294 294 294 295 296 298 294 296 297 301 301 298 297 290 298 303 304 303 305 304 303 303 302 301 301 301 302 301 302 303 304 302 301 300 299 296 299 292 288 292 293 288 284 284 288 295 296 297 297 295 293 293 295 295 295 294 292 292 292
302 302 302 303 303 304 304 304 304 304 305 307 305 301 303 303 302 301 299 297 292 294 292 293 295 295 295 296 295 295 296 297 299 299 299 299 298 299 299 300 297 297 301 299 300 300 300 298 298 299 298 300 300 300 299 299 300 302 305 306 302 295 295 296 294 295 293 290 290 282 283 287 292 293 296 298 298 297 294 289 291 294 295 294 292 292 292
302 302 303 303 303 304 304 304 305 305 305 306 305 304 304 303 302 301 297 293 291 294 294 295 296 296 297 296 296 297 298 298 299 300 297 299 298 298 299 299 300 302 302 302 300 301 297 297 292 294 295 297 297 295 297 299 300 300 301 303 304 302 300 296 292 296 288 289 287 284 286 287 288 289 291 295 293 295 294 285 286 292 294 293 291 290 290
302 302 303 303 304 304 304 305 305 305 305 306 307 305 304 303 302 301 299 299 290 293 296 290 294 296 297 296 298 296 297 298 297 296 299 300 298 298 300 300 302 301 303 301 298 299 295 293 289 289 291 289 285 287 296 293 297 301 302 302 304 304 295 298 293 289 293 287 284 283 283 281 284 291 297 299 299 298 298 292 286 292 293 294 292 291 290
302 302 303 303 304 304 305 305 305 306 306 306 306 304 305 306 304 303 301 298 296 290 293 297 297 297 297 296 298 298 294 294 297 298 298 298 298 300 302 303 304 304 301 300 300 295 294 290 287 288 286 287 285 290 288 294 294 299 302 302 303 303 303 298 294 290 291 289 285 284 282 285 292 293 297 299 300 301 301 294 285 291 293 293 292 290 291
302 302 303 303 304 304 305 305 306 306 306 306 306 304 304 307 303 302 301 300 300 293 300 298 300 299 300 297 299 297 298 294 298 293 293 295 297 298 300 304 307 306 301 301 299 295 292 290 293 290 287 292 288 288 292 291 289 292 297 300 298 297 295 295 292 289 290 290 287 285 287 283 291 296 297 299 301 300 298 285 285 292 294 294 293 291 291
302 302 303 303 304 304 305 306 306 307 306 305 307 306 306 308 308 305 303 304 297 297 301 301 300 300 296 298 297 298 301 299 298 300 296 297 298 297 298 301 299 302 305 296 297 292 291 290 288 288 287 293 292 293 285 289 287 287 289 291 291 291 291 293 289 291 289 288 288 288 284 290 296 296 299 300 301 298 287 283 290 295 295 295 294 292 292
302 302 303 303 304 305 305 306 306 307 307 306 309 309 306 308 307 307 304 303 303 294 300 302 303 302 302 303 303 302 301 300 300 294 294 294 297 299 299 299 301 295 300 295 297 292 290 289 295 293 289 290 294 287 291 288 285 289 290 289 288 289 290 290 292 289 288 289 287 286 287 292 297 298 299 301 295 285 285 294 299 296 295 296 295 293 294
302 303 303 304 304 305 305 306 306 307 306 305 308 307 307 307 307 306 303 302 302 298 299 299 301 299 302 302 301 300 301 301 300 297 295 292 301 301 298 294 299 300 297 299 290 295 291 288 291 294 291 292 293 294 289 287 292 290 289 289 290 289 288 287 288 288 289 289 286 284 280 288 299 298 297 298 290 291 296 298 299 299 297 297 296 295 295
302 303 303 304 304 305 306 306 306 307 306 306 306 306 304 308 307 307 306 303 305 297 297 301 302 301 301 301 303 302 302 301 302 298 299 300 303 300 290 290 296 297 292 294 289 290 292 290 293 292 296 294 292 294 288 287 289 292 292 292 291 293 288 288 288 290 286 286 283 283 289 294 298 298 291 296 298 300 301 300 296 298 298 297 296 296 297
302 302 303 304 305 305 306 306 307 307 306 304 305 309 306 305 305 306 306 305 302 298 300 301 301 303 302 303 303 304 302 302 304 304 304 299 304 301 300 301 300 300 300 301 296 292 297 296 297 292 290 291 296 291 293 289 286 290 294 294 287 294 291 292 288 289 288 287 287 288 293 295 297 297 297 299 301 302 302 301 299 297 296 299 297 296 296
302 302 303 303 304 305 305 306 306 306 306 304 305 310 306 307 306 307 306 306 306 307 307 304 302 304 304 303 304 304 305 305 305 307 307 303 298 303 302 301 301 303 303 303 298 297 297 297 292 297 294 294 292 290 292 293 288 291 287 293 293 295 296 297 292 285 291 292 293 293 293 294 295 298 300 300 300 301 302 300 298 299 299 299 297 296 295
302 302 303 303 304 305 305 306 306 306 306 305 305 312 307 307 307 306 304 303 304 298 301 304 301 296 299 299 302 305 305 304 305 305 308 308 298 297 304 303 304 305 303 304 304 301 299 296 297 299 290 294 296 291 288 287 289 293 290 289 292 293 295 295 290 292 290 284 292 291 291 294 295 296 297 299 301 300 301 299 298 298 299 299 299 298 296
302 302 302 303 304 304 305 306 306 306 305 306 308 308 310 310 309 305 305 297 298 299 293 295 297 301 303 304 305 304 304 306 308 309 308 309 309 305 302 304 305 306 302 303 306 302 298 292 295 294 288 294 297 289 294 290 288 295 289 290 291 290 298 294 291 291 289 287 290 291 293 295 296 296 295 295 297 299 300 300 300 300 300 300 299 298 296
301 302 302 303 303 304 305 306 306 306 305 306 307 310 307 305 309 307 307 307 306 303 293 292 298 304 305 304 301 302 306 307 308 309 309 309 310 309 305 305 305 308 306 307 305 299 296 295 294 294 292 290 300 292 291 295 293 296 293 291 296 295 297 289 292 287 287 290 291 291 293 292 293 296 297 297 297 297 298 299 299 299 298 297 297 297 297
301 302 302 303 303 304 305 305 306 305 305 305 310 311 310 309 311 308 305 305 301 294 296 293 298 301 303 300 303 305 306 307 309 308 307 307 308 309 308 307 305 304 304 302 303 298 297 296 295 293 296 293 298 296 296 293 294 290 289 292 296 294 290 292 290 285 285 286 287 292 287 286 291 293 295 296 298 298 297 298 298 298 297 297 296 297 299
301 302 302 303 303 304 305 305 305 304 305 305 308 310 312 310 311 311 311 308 306 295 295 295 296 300 306 300 303 305 306 307 307 306 305 306 307 308 308 306 306 304 302 299 295 295 294 292 291 293 294 297 295 291 298 296 296 293 292 292 295 292 292 293 289 288 288 293 293 296 297 294 293 294 296 297 298 298 297 297 298 298 299 299 298 297 297
301 301 302 303 304 304 305 305 305 304 305 305 311 310 310 310 313 312 312 312 312 304 299 299 302 301 294 297 304 303 305 307 307 306 305 304 305 306 305 305 303 302 301 299 296 295 293 293 295 294 294 299 296 290 293 288 288 286 290 295 296 296 298 296 296 297 297 297 296 298 296 293 294 296 297 297 299 299 298 298 299 299 299 299 298 297 296
301 301 302 303 304 304 305 305 305 305 305 311 310 307 300 306 312 312 310 312 309 310 297 293 291 292 302 301 301 302 302 305 305 305 304 303 303 303 303 303 302 303 302 297 296 292 294 293 293 298 299 301 295 293 290 291 289 290 295 296 297 297 298 298 298 297 294 298 299 299 297 296 297 297 298 298 299 299 297 297 298 298 298 298 297 297 298
301 302 302 303 303 304 304 305 305 304 306 315 308 295 294 292 303 310 307 312 311 308 298 297 292 297 296 301 303 299 300 301 303 303 303 303 303 303 304 304 303 302 296 296 295 294 295 292 292 294 298 296 295 293 291 290 287 290 294 296 297 297 297 297 299 300 298 298 299 298 297 296 297 297 297 298 299 300 299 299 299 298 298 298 297 298 297
301 302 302 303 303 304 304 305 305 305 311 307 304 302 302 303 305 306 308 309 312 307 297 293 291 293 292 296 301 302 301 301 303 303 302 304 301 303 302 302 298 302 297 295 295 294 292 293 293 296 296 296 294 294 294 292 288 288 294 295 297 297 298 298 298 298 299 299 297 295 294 295 297 295 294 298 299 300 299 299 299 299 298 298 298 299 298
301 302 302 303 303 303 304 305 304 305 309 306 304 304 304 301 303 305 307 312 311 302 305 295 290 291 291 295 301 301 301 304 301 301 298 302 300 302 298 303 302 300 302 296 292 291 295 293 293 291 295 300 293 292 293 288 290 294 295 296 297 297 297 298 298 298 298 299 299 294 292 294 296 298 298 299 299 298 298 297 298 298 298 297 297 298 298
301 302 302 302 303 304 304 304 304 299 303 308 305 306 309 303 306 305 308 313 306 304 300 294 289 290 290 299 296 299 301 298 297 300 292 300 302 301 296 299 299 293 296 295 295 295 295 293 292 291 296 292 293 291 286 290 294 294 295 296 297 297 298 298 298 297 298 299 300 299 298 298 299 299 299 298 298 298 298 298 297 296 296 296 296 297 297
301 301 302 302 303 303 304 304 312 307 304 305 305 309 309 304 303 306 307 309 295 294 293 292 294 290 289 290 290 295 301 300 295 298 293 296 303 298 298 293 294 291 291 302 293 293 291 292 297 291 288 294 290 286 288 292 293 294 295 295 297 297 297 296 296 297 298 299 298 298 298 298 297 296 296 297 297 297 297 296 297 296 295 295 296 297 298
301 301 302 303 302 303 309 309 307 304 302 302 304 306 304 305 307 315 313 313 308 296 292 291 293 290 291 287 287 291 301 296 298 299 297 295 297 299 300 294 289 291 298 294 291 294 291 295 294 287 291 288 286 290 292 294 293 294 295 295 297 297 297 297 297 298 298 299 298 298 297 297 296 296 296 296 296 296 296 296 296 297 296 296 297 297 298
301 301 301 302 306 309 302 299 304 305 304 304 303 303 302 305 312 314 311 310 309 309 299 292 291 292 295 291 292 293 299 290 297 295 296 293 291 293 295 291 288 291 291 291 291 290 293 298 292 288 288 287 289 295 296 295 295 295 295 297 298 298 298 298 298 298 297 296 296 296 296 295 295 295 295 295 295 296 296 295 296 296 296 296 297 297 298
301 300 306 304 301 294 295 298 303 305 301 302 303 305 306 303 296 296 297 295 298 302 296 299 292 295 296 297 289 297 298 292 298 291 291 294 291 290 293 291 289 291 286 288 290 296 293 291 289 288 287 294 296 296 296 297 297 298 298 298 298 298 298 298 298 296 294 293 293 294 294 294 294 295 295 295 296 295 296 298 298 298 298 298 298 299 298
302 308 304 303 299 294 295 303 306 301 302 305 306 298 294 296 295 290 291 294 294 292 296 296 292 296 295 293 294 299 297 292 291 293 289 294 291 287 291 287 288 290 286 287 288 297 287 288 288 288 286 291 293 294 297 298 298 298 298 299 298 298 298 298 298 297 295 294 294 295 295 293 293 294 295 296 297 297 298 298 298 299 299 299 299 299 299
305 301 296 296 295 299 305 306 304 303 305 298 297 295 290 294 291 288 294 290 290 291 293 291 297 297 299 295 292 292 300 297 289 289 290 291 297 289 290 290 289 288 283 285 287 295 288 283 287 287 286 290 292 296 296 296 296 297 298 298 298 298 298 297 297 298 298 297 297 297 297 297 297 296 296 296 297 297 298 298 298 299 299 299 300 299 298
299 300 300 295 300 301 302 303 305 304 297 293 293 292 291 288 291 290 290 288 288 290 296 297 297 295 297 297 297 292 297 301 299 300 294 289 294 295 289 285 290 286 284 285 289 291 288 286 286 287 287 292 293 294 296 296 296 296 297 297 297 297 297 297 297 298 297 297 297 297 297 298 298 298 298 298 298 298 298 298 299 299 300 299 298 299 300
296 296 298 299 299 299 301 301 297 294 292 293 289 286 288 288 291 290 291 287 287 291 294 296 291 294 294 298 297 298 295 299 296 293 292 287 291 290 287 288 289 285 282 289 292 290 288 283 284 286 291 294 295 295 295 295 295 296 296 297 297 298 298 298 298 298 298 297 297 297 297 298 298 298 299 298 298 298 298 298 298 299 299 300 300 299 299
298 299 298 297 298 296 295 291 292 292 286 286 285 284 287 285 287 287 288 291 293 293 294 300 298 298 298 300 297 299 295 299 294 292 291 288 291 290 288 286 286 282 286 292 289 286 284 283 283 288 294 294 295 295 295 296 296 296 297 298 298 298 298 298 297 297 298 299 299 299 300 300 299 299 299 299 299 299 299 299 299 299 300 300 299 299 299
300 299 296 292 291 291 292 284 292 288 285 287 285 281 283 283 286 288 286 289 292 292 296 294 294 294 290 296 295 292 292 295 294 293 290 291 290 287 286 283 285 289 294 288 287 284 285 287 288 292 295 296 295 295 296 296 296 296 296 297 298 298 298 297 298 298 297 298 298 298 298 299 299 299 300 300 300 299 299 299 300 300 299 300 299 299 300
295 292 290 290 288 289 287 280 290 286 282 284 286 286 286 284 287 289 289 293 296 294 296 298 296 296 292 295 295 295 294 291 293 290 286 289 287 288 286 285 288 289 286 284 285 286 285 285 292 294 294 294 295 295 296 296 296 296 295 296 297 298 298 297 297 297 298 299 299 299 299 299 299 299 299 299 300 300 299 298 301 300 300 299 299 299 300
292 291 289 284 279 285 286 283 284 282 286 288 287 290 290 291 292 292 296 298 296 297 295 296 296 297 292 295 292 290 293 293 290 288 289 290 285 283 288 291 290 285 283 285 282 282 285 289 291 294 295 295 295 296 297 296 297 297 296 295 297 298 299 298 298 298 298 297 298 298 298 298 298 298 298 299 300 300 300 300 300 299 299 299 298 299 300
292 290 290 289 284 286 288 283 284 287 290 290 292 293 293 295 296 296 296 297 298 299 299 299 298 297 293 292 291 291 292 293 288 288 290 286 284 285 289 286 281 283 280 280 282 284 287 291 294 296 296 296 296 297 297 297 297 296 296 296 297 297 298 298 298 298 298 298 298 298 298 298 298 299 299 299 300 301 300 302 301 300 299 298 299 299 300
288 291 289 282 281 286 283 286 292 292 292 293 293 293 294 295 294 293 296 297 299 299 297 296 293 294 292 295 295 290 291 292 288 287 289 287 288 285 283 283 282 285 285 284 285 289 291 294 295 296 297 297 297 297 297 297 297 297 297 296 297 297 297 298 298 298 298 298 298 298 298 299 299 299 299 299 299 300 301 301 301 301 300 300 300 300 299
292 289 286 286 287 287 288 291 290 288 291 292 292 293 293 292 292 295 296 298 297 297 298 296 293 293 289 292 290 289 286 290 285 284 287 286 283 279 280 279 281 280 286 288 289 291 293 295 297 298 298 297 297 297 297 298 298 298 297 297 297 297 298 298 298 299 299 299 299 298 298 299 299 299 299 299 299 300 301 302 302 301 300 300 299 299 299
290 290 289 287 287 288 291 292 289 288 291 291 291 291 293 292 293 295 297 296 298 297 296 296 296 292 290 289 286 288 287 290 288 287 285 283 283 284 284 280 283 284 287 291 291 294 296 297 299 298 298 298 297 297 297 298 296 297 298 299 299 299 299 299 299 299 300 299 299 299 299 300 299 298 299 299 299 300 301 301 301 300 300 300 299 299 298
293 290 291 295 289 288 289 285 286 286 288 289 290 291 292 291 293 294 298 298 297 295 292 290 291 289 288 287 286 282 285 290 287 285 285 284 287 285 283 282 286 289 291 295 295 296 297 298 298 298 298 298 298 298 299 298 298 298 299 299 300 300 299 300 300 300 301 300 300 294 299 299 299 300 300 300 300 300 300 299 300 300 300 300 300 299 299
289 287 288 292 294 293 292 292 291 291 291 292 292 294 294 293 295 296 298 297 295 291 290 293 291 288 285 284 286 289 289 288 285 286 284 287 288 285 285 287 291 293 294 294 295 296 296 298 299 299 300 298 298 299 299 299 299 299 299 299 300 300 300 300 300 301 301 300 300 300 300 300 300 300 300 300 299 298 297 297 299 300 300 300 300 300 300
Wind_Speed
13 13 12 12 11 11 9 10 10 8 9 4 2 1 3 3 3 2 6 10 5 4 7 6 6 8 5 2 1 4 2 4 4 6 5 7 7 8 7 6 5 8 8 16 13 14 9 12 11 10 12 11 2 11 14 9 13 14 9 8 4 2 6 10 9 7 8 6 4 3 2 4 5 3 1 12 14 12 11 9 10 9 7 8 6 5 5
15 14 13 13 12 10 10 9 9 8 7 5 2 2 0 2 5 5 6 6 4 5 6 7 6 7 3 3 1 3 4 5 7 7 8 5 4 6 5 5 9 5 8 12 15 14 5 4 9 6 9 7 4 7 9 12 11 13 9 9 9 6 4 9 8 9 6 7 8 7 6 6 6 5 2 3 1 1 1 1 8 6 10 8 7 8 5
14 14 14 14 13 11 10 10 9 7 6 4 1 1 1 3 4 5 6 5 4 3 2 4 6 6 1 3 3 4 4 6 11 12 12 8 8 8 7 8 4 7 9 13 11 12 8 8 6 9 7 6 4 6 9 12 10 5 3 2 9 3 2 4 13 14 14 14 13 13 11 11 5 3 4 4 4 9 8 6 7 6 6 6 8 4 8
15 15 14 14 13 12 11 10 9 7 6 2 4 1 3 4 4 3 5 5 4 4 3 3 3 3 3 2 3 3 7 7 8 13 14 14 13 11 11 12 11 10 14 12 14 17 12 8 6 8 7 8 5 5 11 7 6 9 7 7 6 3 4 8 3 8 7 3 4 5 4 8 7 5 5 4 2 3 4 4 6 7 7 7 4 12 15
15 15 14 14 13 12 11 9 8 7 7 5 4 1 3 4 3 4 6 5 4 2 2 2 4 1 4 1 2 6 11 10 9 7 8 3 4 6 10 8 7 11 13 13 13 10 12 5 9 9 10 7 7 9 9 8 10 13 8 4 5 4 6 7 10 14 9 6 7 5 4 10 9 8 6 4 1 0 4 5 6 6 7 5 7 17 19
17 16 15 15 14 14 11 8 7 7 7 4 3 3 1 2 3 0 3 2 4 4 2 4 4 5 8 4 4 7 9 10 7 2 3 5 2 4 6 9 9 13 12 13 7 11 9 10 5 11 9 12 12 10 8 7 7 9 7 2 4 6 3 4 9 12 11 9 10 11 13 12 11 12 9 7 4 3 4 4 6 4 5 4 14 14 16
17 17 16 16 15 15 14 11 11 9 8 5 4 3 2 2 1 1 2 1 4 3 3 6 7 8 10 6 7 10 10 8 4 4 2 2 3 7 1 5 8 14 17 10 9 12 11 9 11 9 12 13 12 9 9 7 10 8 8 5 3 5 6 7 10 14 12 11 11 11 15 14 16 14 13 11 11 11 11 9 7 8 11 16 18 16 16
17 17 17 17 17 16 15 12 12 12 9 5 3 2 2 2 1 2 3 1 4 3 3 5 5 6 7 4 5 5 2 3 3 3 3 2 1 1 7 6 7 8 12 14 10 4 5 14 9 8 11 7 7 9 4 9 6 8 7 6 1 0 5 9 8 11 11 10 10 11 13 15 17 13 12 12 12 14 14 15 17 19 17 16 20 20 14
15 16 17 17 17 16 15 12 12 14 10 3 1 2 1 2 2 2 2 4 3 3 2 4 5 4 5 5 6 5 1 6 5 4 3 4 1 2 5 9 9 8 11 12 12 8 10 10 10 8 3 5 4 1 5 4 10 9 6 3 4 5 8 8 5 7 6 6 9 12 15 18 18 15 13 9 6 9 6 5 5 4 15 17 17 13 9
17 16 16 16 15 14 14 13 11 13 14 2 3 2 2 3 3 2 3 1 1 2 5 4 4 1 1 3 6 3 3 4 8 7 5 0 3 4 4 8 11 10 16 14 9 10 14 15 13 11 12 12 9 8 8 5 6 6 5 4 5 6 11 7 5 6 6 9 9 11 11 10 7 9 8 7 10 9 8 8 8 11 17 15 8 8 11
17 17 16 15 15 14 13 12 11 8 7 3 3 2 3 2 1 2 2 2 2 1 3 1 3 2 7 4 6 3 3 8 4 5 3 4 2 1 4 14 11 9 12 8 6 10 14 14 14 11 15 15 12 9 11 12 10 6 5 4 4 10 11 7 7 3 8 10 8 2 4 8 4 4 5 3 5 7 12 12 12 9 4 5 8 14 15
18 17 16 16 15 14 13 12 11 5 4 2 3 3 2 3 2 2 2 2 2 1 2 2 3 3 5 5 2 9 12 13 12 9 11 8 8 8 10 13 13 8 2 3 2 4 7 14 19 15 18 17 15 16 17 13 10 5 1 5 9 10 7 5 4 6 9 9 7 4 8 4 2 0 4 7 9 13 16 13 10 9 14 18 18 17 15
19 19 18 17 16 15 14 12 10 7 6 5 2 3 1 1 2 1 2 3 1 4 2 3 1 1 2 2 8 9 9 11 11 12 12 11 11 10 6 7 13 10 8 3 4 5 9 8 11 14 16 15 15 19 19 16 12 8 7 6 9 7 6 6 5 6 7 7 6 7 4 3 4 4 7 9 12 14 16 14 11 8 11 16 18 16 16
19 18 18 17 17 16 16 14 11 9 5 6 4 3 1 3 2 1 1 0 0 3 4 0 3 5 4 6 7 8 10 13 12 12 11 9 14 14 12 10 10 9 6 2 3 5 10 9 8 9 10 9 10 11 10 14 14 11 10 7 4 10 7 5 8 2 5 3 5 6 6 5 2 4 5 8 7 8 3 6 5 5 8 13 17 17 16
19 18 18 18 17 17 16 15 13 9 6 7 4 3 3 2 2 1 0 3 1 1 3 2 4 5 4 5 4 6 7 8 9 9 10 10 11 8 8 6 4 3 4 3 3 3 4 4 6 7 7 8 6 4 2 5 6 12 9 7 5 1 3 5 5 1 4 7 9 6 5 5 7 4 7 3 1 5 5 10 6 5 7 10 15 18 17
19 19 19 18 18 17 16 15 14 10 6 3 4 3 2 2 3 1 1 2 3 2 4 5 6 6 4 5 7 8 4 3 6 8 8 9 9 9 7 4 2 2 3 2 2 2 1 2 4 5 3 3 2 3 4 4 4 6 7 7 7 8 6 2 3 6 7 6 6 6 8 2 5 10 9 5 2 6 6 4 5 6 10 12 13 16 16
19 19 19 19 18 17 16 14 14 10 6 5 3 2 2 4 4 2 1 2 2 4 4 5 5 6 4 4 2 5 6 3 4 2 4 6 6 6 7 4 4 4 2 0 2 2 3 3 3 6 4 2 1 4 5 3 4 5 6 8 11 8 3 3 5 5 5 6 5 5 3 3 7 11 8 6 5 3 4 6 7 11 13 13 14 15 16
20 19 19 19 18 17 16 15 15 10 3 3 4 2 1 4 4 3 3 4 1 5 7 7 7 5 6 5 4 2 2 2 3 4 4 4 4 5 4 1 3 4 4 2 1 3 3 2 3 3 4 4 1 4 2 2 4 3 4 3 3 4 3 1 5 5 4 4 4 5 4 1 8 10 9 6 3 3 6 3 9 16 16 14 13 14 14
21 20 20 18 18 17 18 17 17 14 5 5 3 3 2 3 4 4 4 4 1 3 5 6 4 6 4 3 3 3 3 3 3 2 2 2 4 4 3 2 4 1 3 2 2 2 1 2 1 2 4 3 1 3 2 2 3 2 2 5 5 4 2 2 2 5 5 5 4 4 6 5 8 6 6 6 5 5 1 6 11 17 17 14 14 15 14
21 21 20 19 18 18 18 18 21 18 9 3 4 2 3 2 4 5 3 4 5 7 6 8 8 9 7 7 5 3 2 3 4 2 1 3 1 4 2 3 3 0 2 2 2 2 0 3 3 0 3 5 4 3 5 4 3 3 3 3 2 2 1 4 4 1 2 2 5 4 4 5 9 10 6 2 3 4 8 13 15 14 16 16 14 14 14
22 22 22 21 20 20 20 19 20 20 12 2 3 1 2 2 3 5 3 4 4 4 5 5 6 10 9 9 8 7 8 7 7 5 5 4 2 2 3 1 3 0 1 0 1 2 1 2 3 2 3 2 5 3 4 6 5 3 5 4 4 4 1 3 2 2 2 6 3 2 4 11 9 9 3 5 6 7 10 13 14 13 14 15 14 13 12
22 22 22 22 22 22 21 19 17 16 10 4 3 4 2 2 2 4 3 4 3 4 3 3 3 4 7 7 6 6 7 7 7 6 5 2 1 3 3 3 4 2 2 0 4 2 1 3 2 2 4 4 2 2 6 5 4 5 3 3 2 6 4 5 2 3 3 3 5 4 4 9 6 4 5 7 8 8 9 12 14 14 12 14 14 14 11
22 21 21 21 22 21 20 19 18 16 13 3 4 3 3 3 3 3 4 3 3 2 2 2 3 2 3 4 4 5 4 3 5 5 5 4 1 1 2 1 4 3 1 3 3 2 4 5 2 3 5 3 3 5 2 2 4 5 3 6 5 3 4 6 9 7 11 11 9 7 7 8 8 7 8 10 10 8 10 13 13 12 13 13 14 14 12
22 22 21 21 21 21 20 19 18 17 14 8 3 3 2 2 3 3 3 4 1 3 7 9 4 5 9 10 11 7 6 7 6 5 3 2 1 2 3 3 2 3 2 3 4 1 4 3 3 0 3 3 2 4 3 3 3 6 6 5 3 4 0 1 5 11 5 5 4 8 9 10 10 10 9 8 8 9 9 11 11 12 12 14 16 15 15
23 22 22 21 21 21 20 19 18 18 17 14 4 3 3 2 2 3 3 1 0 0 4 4 8 7 8 4 6 5 8 8 4 1 2 3 5 5 4 5 3 4 6 4 2 4 2 2 4 3 4 2 5 3 4 4 5 6 3 4 5 5 3 6 7 6 1 7 8 8 9 9 9 9 9 9 9 9 9 10 12 12 12 15 16 16 14
24 23 22 22 21 21 20 19 16 15 16 17 11 3 5 4 2 2 5 1 2 2 3 5 7 8 7 8 11 8 9 8 7 8 8 6 6 7 10 6 7 5 5 2 2 3 3 3 3 3 6 3 4 2 4 7 7 4 2 5 4 5 8 5 6 6 10 11 9 10 11 10 7 8 8 9 10 11 12 13 14 15 16 16 15 14 14
24 23 22 22 21 21 20 19 16 14 13 12 6 1 1 3 4 4 4 4 0 4 3 5 4 7 11 15 10 8 9 8 7 9 11 11 10 7 8 8 7 6 6 6 5 4 4 5 5 6 6 6 3 7 6 7 7 5 5 5 5 7 6 9 10 11 9 9 10 14 9 7 7 8 10 11 12 13 15 15 16 17 17 16 17 16 16
23 22 22 21 21 21 19 20 18 17 13 10 5 1 1 2 3 4 4 3 4 1 4 4 4 3 4 14 11 9 10 8 8 11 10 10 10 8 6 6 5 5 4 3 4 3 4 6 8 4 5 7 5 5 5 7 7 7 7 7 3 3 10 8 6 5 7 10 14 8 6 12 10 11 11 12 13 14 16 16 17 18 18 19 19 20 18
22 22 22 21 21 21 20 18 19 19 15 9 3 3 2 0 0 5 6 3 4 4 5 5 6 5 3 5 6 9 11 10 10 10 11 11 11 11 10 9 8 7 9 8 6 6 6 6 3 3 3 3 3 8 7 5 5 6 6 6 4 4 6 5 7 5 10 15 12 8 11 13 14 13 14 13 13 15 17 17 17 18 19 19 19 18 18
22 22 22 21 21 21 20 19 20 20 17 3 4 4 2 4 2 5 9 6 5 4 2 3 4 2 1 2 7 8 9 9 12 13 13 11 11 9 9 9 9 8 7 5 5 8 6 5 3 4 4 5 0 4 5 6 7 6 5 3 3 5 6 4 1 5 13 14 10 11 15 16 14 15 14 14 15 16 16 17 18 19 19 18 18 16 15
22 22 22 21 20 19 19 18 19 21 16 3 4 0 0 2 4 7 11 7 4 3 3 3 5 2 3 3 3 7 6 6 7 10 12 10 10 9 7 8 8 7 7 6 6 6 2 4 3 3 2 5 3 4 7 7 8 8 6 6 7 7 6 6 5 12 15 13 14 16 17 16 14 14 15 15 16 17 17 17 18 18 17 17 16 15 13
23 22 22 21 19 19 17 16 16 17 6 7 5 4 3 4 5 10 10 7 5 2 4 6 3 2 3 2 3 4 3 2 2 7 6 5 8 8 10 8 7 8 6 6 4 4 5 3 3 4 3 2 4 5 6 6 7 8 8 6 6 7 8 12 14 15 14 16 20 19 17 15 14 15 15 16 17 17 18 18 17 17 15 15 14 13 13
23 22 22 21 19 17 17 14 14 8 3 3 3 2 5 3 6 8 7 5 2 3 3 1 3 1 1 4 1 3 5 2 5 4 7 5 4 3 5 4 5 6 7 1 3 3 1 1 4 5 5 1 2 5 8 7 9 9 9 9 10 11 12 14 15 15 16 16 13 16 19 18 18 17 18 18 17 16 17 18 17 14 13 14 14 12 11
23 22 21 20 17 17 14 13 10 4 5 4 2 2 3 5 9 7 7 2 3 1 1 1 2 2 3 2 3 4 6 2 5 2 5 4 3 1 5 5 6 4 6 6 2 3 2 2 5 4 4 4 2 3 6 8 9 10 9 11 12 13 14 15 15 16 16 14 13 14 17 18 18 18 18 17 17 16 16 14 15 15 15 14 13 12 11
22 22 20 18 16 14 13 11 4 2 2 1 1 2 6 14 11 8 4 2 2 1 1 0 1 4 4 2 2 4 4 3 4 4 3 3 3 4 3 3 2 3 2 2 3 3 3 3 4 1 4 1 2 3 4 9 10 10 10 12 13 15 16 17 16 15 14 15 16 16 17 19 20 18 18 17 16 16 16 15 15 15 14 12 12 12 11
22 20 18 16 16 10 4 5 1 2 3 1 2 9 15 15 11 3 2 2 3 1 1 1 2 3 2 4 3 2 2 5 3 1 4 0 4 4 3 3 6 4 2 2 4 3 3 2 2 4 0 1 4 3 8 10 11 11 11 13 14 13 14 16 18 17 17 17 18 18 19 18 17 17 16 16 16 16 16 16 15 14 13 12 12 11 9
21 17 17 13 6 3 2 0 1 1 3 5 12 16 18 12 3 4 3 3 3 3 0 3 3 3 2 3 2 2 3 3 1 2 2 2 3 1 2 3 5 1 1 3 3 4 3 3 1 4 4 4 4 8 10 10 11 12 13 12 12 11 14 14 16 18 20 20 20 18 17 17 17 15 15 15 15 15 15 14 14 14 13 12 11 10 9
19 14 5 3 3 2 1 1 1 4 9 12 9 5 1 2 1 1 0 0 1 2 1 3 1 3 1 3 3 2 3 3 3 1 2 0 1 2 1 2 2 1 2 2 4 2 1 2 3 4 3 5 7 9 10 9 10 10 11 11 12 12 13 15 17 19 21 21 19 18 17 17 16 15 15 16 15 15 13 12 11 10 10 10 9 8 8
10 3 3 1 2 2 0 3 5 9 6 4 3 2 1 1 1 1 0 0 1 2 1 2 3 3 3 3 5 2 3 1 3 2 2 1 1 3 1 1 1 0 3 2 3 3 1 3 2 4 5 6 8 8 9 9 9 9 10 11 12 13 14 15 16 18 17 15 17 18 17 17 19 17 15 14 13 12 11 11 11 10 9 8 7 5 5
4 1 1 1 1 3 4 5 7 6 3 1 0 1 1 0 1 2 0 1 1 1 1 2 2 1 2 1 5 4 1 3 1 3 3 3 2 1 1 1 1 1 2 1 3 2 1 2 1 3 6 7 8 8 8 10 11 11 11 13 15 15 15 15 15 14 14 15 16 16 16 16 15 15 14 13 13 12 11 11 10 9 7 6 4 5 7
6 4 2 1 4 5 5 8 5 3 1 2 1 0 0 1 1 1 1 1 0 2 2 2 4 3 2 1 3 3 2 2 2 3 1 2 1 2 1 2 0 0 1 1 2 1 1 2 2 2 5 8 10 11 10 11 11 12 12 14 15 14 16 16 16 15 16 16 15 14 15 16 15 13 12 13 12 11 10 9 9 8 8 7 7 6 5
7 6 6 7 8 7 6 3 1 0 1 1 1 0 0 1 0 1 1 2 2 2 4 3 5 6 5 1 2 2 3 2 1 0 1 2 0 1 2 2 1 1 2 2 2 1 1 1 2 3 6 11 13 12 12 12 13 13 15 15 16 16 16 16 16 16 17 16 14 14 14 15 14 12 12 12 11 11 10 10 10 9 9 8 7 7 6
8 6 4 4 3 1 1 2 1 1 1 2 1 1 1 2 1 1 2 1 0 2 3 2 3 3 3 2 4 4 2 0 1 1 0 2 1 1 1 1 1 1 2 2 2 1 2 2 2 4 9 12 14 14 13 13 14 14 14 14 14 15 16 16 15 16 16 14 13 12 11 11 11 11 10 10 10 10 9 9 10 9 8 8 8 7 7
2 2 2 2 1 1 1 1 0 0 0 0 2 4 3 3 3 2 2 2 4 2 5 6 6 7 4 0 1 3 2 2 1 1 2 1 1 1 1 1 2 2 1 2 1 3 1 1 0 6 11 12 12 14 14 14 15 15 14 14 15 15 16 16 15 14 14 13 13 12 11 11 10 9 8 8 9 10 9 8 7 8 9 9 8 8 6
2 2 1 1 0 0 0 0 0 1 4 4 2 3 4 5 4 5 2 3 3 3 7 4 7 6 4 3 0 1 2 2 1 1 2 2 1 0 0 2 2 2 2 2 1 1 0 3 4 8 13 15 15 16 15 15 15 16 16 17 16 16 16 17 16 15 13 11 11 11 11 11 10 9 9 9 9 9 9 10 8 8 9 9 9 8 6
2 1 2 2 1 2 2 0 1 2 2 1 3 5 5 4 3 5 3 1 2 4 7 7 6 5 4 1 1 2 2 2 3 1 0 1 2 2 2 1 1 2 1 2 2 4 2 3 7 10 14 16 17 16 16 15 15 15 17 17 16 15 15 15 15 15 14 13 12 12 11 10 10 10 9 9 8 8 8 8 10 10 10 10 9 8 8
2 1 1 0 2 1 0 2 4 2 1 4 4 4 3 2 2 3 2 1 1 2 4 4 3 3 5 3 2 2 1 1 1 1 1 1 2 2 0 1 2 2 2 3 3 2 2 4 7 10 14 16 17 17 17 16 16 17 17 16 15 16 16 15 15 15 14 14 13 12 11 11 11 10 9 9 8 7 7 7 9 10 11 10 9 8 8
1 0 1 2 3 2 4 3 0 0 2 2 1 2 1 2 3 4 3 1 0 3 6 6 5 4 3 1 3 1 3 1 2 1 0 2 1 1 1 1 2 2 2 2 2 2 1 4 7 11 14 16 17 18 17 17 17 18 19 18 18 18 17 16 16 15 15 14 13 12 11 11 10 9 9 10 10 8 8 7 8 10 11 10 9 8 8
2 1 1 2 0 1 2 2 2 5 3 3 1 1 2 4 5 2 3 2 3 5 4 6 5 4 2 1 2 3 3 2 3 2 2 2 2 3 3 3 3 3 3 4 2 1 2 3 7 12 15 16 17 17 17 16 17 18 18 18 18 18 17 16 16 14 13 11 12 11 10 9 9 9 9 10 10 9 8 8 9 9 10 10 9 9 8
2 2 1 2 2 2 1 1 4 4 5 4 4 4 3 4 4 2 3 3 3 3 3 1 0 1 2 2 2 2 2 2 1 2 3 4 2 2 2 3 3 2 1 3 2 2 3 4 7 12 15 16 17 17 17 16 16 16 17 17 16 15 15 16 16 15 13 11 11 11 11 9 9 9 10 11 10 9 8 8 9 10 11 10 9 9 8
1 2 2 2 3 1 5 4 5 5 4 6 6 4 4 4 4 2 3 2 5 4 4 5 5 2 3 2 2 3 2 2 2 4 3 3 2 3 4 4 3 4 2 2 2 1 3 5 6 10 14 16 16 17 17 17 16 16 15 15 15 14 14 15 15 13 13 12 11 11 11 10 10 11 11 10 9 9 9 8 9 10 11 10 9 8 8
1 3 4 4 5 3 4 2 2 3 1 1 3 2 1 2 1 2 2 4 5 6 7 4 4 3 2 4 3 2 2 2 1 1 3 2 2 3 4 4 4 2 3 3 3 3 3 4 5 10 13 14 16 17 17 16 16 15 15 15 14 14 13 13 13 12 11 10 11 10 10 11 12 10 10 10 10 10 10 9 9 9 9 9 9 8 8
Wind_Direction
10 9 5 359 355 353 351 351 349 352 334 317 39 278 202 241 64 51 160 158 190 257 215 186 198 214 216 34 92 49 321 309 310 299 292 275 247 262 251 260 259 231 238 185 181 186 173 181 186 176 183 171 89 144 171 175 176 195 178 184 131 133 210 165 157 111 102 109 126 120 19 189 168 75 293 192 201 199 208 214 169 194 167 207 200 222 115
8 4 357 353 356 353 350 350 352 353 352 335 334 245 158 109 124 123 145 178 287 263 191 184 201 205 198 253 353 46 341 296 280 264 264 254 274 280 299 288 238 237 219 181 185 164 129 160 177 168 172 141 105 159 159 177 190 201 165 199 150 194 172 175 160 165 142 151 152 147 163 199 203 175 89 10 123 210 132 102 166 212 194 218 195 202 144
3 360 354 353 351 352 348 338 340 337 354 339 336 316 9 117 91 108 157 197 269 252 343 224 190 197 57 4 321 5 310 249 259 270 272 272 271 283 260 257 283 232 206 186 172 173 160 143 157 165 184 117 144 155 172 184 196 178 105 212 156 231 47 249 182 177 178 175 182 180 174 173 113 83 108 31 209 184 189 196 194 218 160 195 220 98 97
357 358 358 353 351 352 344 335 330 331 336 312 253 305 249 185 126 157 169 204 224 258 250 295 194 125 52 6 316 281 267 280 266 258 263 259 263 262 277 286 277 244 194 179 171 184 171 162 168 166 148 135 115 145 159 172 171 111 97 129 128 89 69 36 327 212 180 110 82 6 99 131 148 99 100 116 33 13 288 221 198 219 156 198 36 132 139
357 359 -0 358 356 355 344 336 328 332 339 310 292 242 273 311 146 168 168 173 223 229 206 118 69 77 125 180 192 240 240 254 288 271 261 203 260 261 246 247 226 205 184 177 170 161 172 168 165 164 147 119 113 138 152 150 117 123 110 105 117 126 82 46 62 68 76 74 75 85 121 112 105 119 94 102 85 334 251 209 227 142 167 184 94 135 139
0 3 4 4 3 1 352 351 337 343 337 315 242 265 221 198 122 251 22 297 141 172 150 138 160 189 178 231 218 253 258 252 250 331 288 342 264 253 207 229 232 188 168 152 147 174 169 176 164 142 132 127 131 125 143 149 146 164 128 172 178 118 98 86 91 83 79 75 91 94 89 84 86 79 78 71 72 152 108 61 33 180 236 176 134 146 138
-0 1 2 1 2 0 359 357 348 344 337 273 272 292 107 280 97 12 87 275 88 19 110 176 190 195 197 234 242 268 270 265 221 210 250 205 233 228 283 217 197 178 170 166 138 161 155 164 172 146 147 146 142 132 125 117 160 152 118 89 78 104 79 120 106 99 88 85 89 96 97 94 76 66 64 65 72 72 82 79 70 77 90 116 133 132 128
357 358 358 359 359 359 1 359 349 349 325 267 259 12 312 64 8 133 190 210 84 81 139 195 203 222 212 244 243 256 11 107 153 268 231 172 132 201 250 194 171 161 158 159 141 143 196 150 149 144 136 124 165 142 140 144 159 158 123 129 90 270 132 138 111 91 85 92 99 99 96 91 82 63 64 70 73 77 77 85 85 90 94 110 119 119 107
355 358 358 356 357 357 2 360 347 347 336 245 311 29 320 304 295 306 314 130 72 66 305 225 221 236 214 231 264 249 202 106 130 101 331 296 104 266 150 136 100 96 114 89 61 49 75 86 92 80 109 131 36 330 121 157 147 146 122 111 107 117 138 178 161 109 97 108 104 107 99 92 86 67 52 48 55 71 57 66 28 96 126 126 123 119 125
358 359 357 357 356 358 358 359 354 346 322 295 320 337 19 251 226 256 308 3 351 216 197 239 260 254 41 272 294 289 350 175 146 109 115 270 293 284 358 96 98 85 81 67 67 71 84 90 86 87 81 76 76 62 69 36 144 142 96 127 140 136 143 174 176 104 129 143 141 130 137 126 90 37 12 31 82 85 86 83 89 105 124 132 150 148 137
357 357 357 356 356 353 350 345 349 343 335 34 342 336 343 341 333 293 256 243 161 276 276 149 255 359 309 235 281 342 29 87 138 150 113 134 70 310 337 70 71 71 78 95 60 87 95 94 90 82 81 63 53 61 72 58 41 63 116 115 112 137 147 156 160 118 142 163 154 196 193 187 110 19 333 295 73 106 94 91 99 95 62 69 89 127 132
355 355 352 351 350 348 343 341 337 347 291 344 308 301 335 321 278 278 281 232 125 265 284 343 319 318 327 17 47 54 51 50 54 78 104 88 75 80 94 87 88 81 96 344 10 82 83 120 108 98 90 88 74 61 61 55 46 38 308 143 141 143 138 116 122 127 149 158 179 182 200 96 6 316 66 80 95 98 92 85 88 94 99 103 112 123 129
352 350 347 346 346 344 343 341 337 337 312 300 284 313 337 301 300 342 289 304 43 350 333 26 353 235 283 17 72 59 71 75 69 66 65 78 85 69 45 109 109 137 170 189 43 20 96 112 99 107 106 105 88 72 58 55 49 40 53 117 138 130 126 113 88 111 118 154 183 188 112 92 119 107 105 110 114 113 96 69 53 81 109 121 122 124 121
349 346 340 341 342 342 342 342 339 334 320 301 281 283 286 246 254 190 252 295 270 317 295 316 106 59 38 63 67 93 82 73 67 61 63 50 75 73 66 65 95 144 177 192 217 201 140 142 131 142 142 135 103 73 67 61 44 45 62 70 113 134 117 123 113 148 152 111 66 69 132 127 100 142 164 161 141 156 139 115 73 74 117 128 124 120 120
347 343 340 338 339 340 335 338 338 332 311 278 272 248 240 228 241 290 270 293 125 112 338 32 6 346 16 47 18 97 75 79 78 74 79 79 69 55 77 101 130 173 160 272 172 210 151 144 137 139 153 167 147 112 122 56 42 37 41 56 58 24 156 137 116 108 128 136 120 134 158 197 199 207 157 190 308 337 99 110 99 104 126 136 135 131 130
347 342 339 337 336 334 333 337 339 338 330 289 234 232 233 218 180 223 306 327 302 94 35 357 311 297 355 44 30 46 67 74 91 110 95 81 89 103 81 103 122 194 212 249 20 66 59 137 132 147 128 89 334 142 116 129 110 51 48 69 78 73 79 101 146 140 167 171 168 164 179 85 115 162 163 152 161 184 157 147 116 152 148 145 139 132 133
346 342 338 337 332 331 331 333 343 343 319 253 213 196 184 181 179 192 233 223 239 58 3 348 314 278 282 79 52 48 14 37 5 89 106 74 59 76 102 113 152 209 240 265 55 147 124 101 77 88 83 24 173 103 129 99 121 112 93 82 70 73 84 117 123 147 169 173 183 166 58 126 171 148 150 155 143 162 234 192 178 166 159 150 145 140 141
345 342 339 335 333 333 334 339 350 351 349 207 220 154 150 164 201 190 249 276 340 74 30 2 344 348 40 3 13 42 290 164 114 64 73 88 73 46 28 324 145 112 290 46 26 91 67 85 119 133 102 45 35 256 131 85 87 48 75 35 99 90 74 15 147 154 129 150 105 96 103 29 133 142 145 128 183 218 215 207 128 153 154 153 145 142 144
346 341 341 337 337 337 339 342 360 11 37 198 198 147 119 171 185 223 290 264 275 79 32 33 351 31 5 296 357 346 5 353 329 127 113 122 63 21 337 47 299 80 4 78 51 61 99 87 11 52 125 139 238 74 109 119 84 62 331 131 111 90 92 61 127 150 167 164 158 110 86 141 142 125 152 141 174 195 156 73 125 139 147 149 146 144 147
345 341 341 340 341 341 346 348 2 12 28 172 250 55 76 156 192 210 290 351 67 77 48 33 18 43 24 11 16 18 27 154 9 66 41 95 67 286 216 168 146 45 113 113 83 349 172 119 83 248 148 129 70 112 90 76 17 46 60 325 340 50 248 138 130 75 81 181 123 159 168 156 176 149 149 185 261 69 110 123 127 142 140 144 143 144 147
345 343 342 342 344 346 350 354 4 6 11 96 230 148 118 123 201 216 255 302 317 84 78 46 45 50 33 37 22 2 353 17 355 24 55 53 29 292 206 129 87 35 59 329 165 125 7 129 110 76 28 35 122 227 130 123 116 92 331 41 44 346 246 119 88 332 184 165 160 115 44 130 157 173 156 140 58 126 127 130 132 138 144 143 143 144 140
346 345 343 342 344 346 346 349 355 11 22 355 297 259 88 101 181 225 229 259 305 50 61 45 8 47 61 50 40 16 6 349 357 337 328 70 67 341 28 86 46 17 60 325 115 100 177 79 99 140 144 114 192 116 142 168 135 120 91 290 173 20 8 344 123 51 0 35 76 110 117 112 107 79 76 85 125 124 128 131 138 141 144 144 141 136 125
345 344 343 341 342 342 343 345 351 358 13 32 233 295 35 148 155 181 223 237 163 119 129 154 213 159 161 120 54 21 12 356 321 309 295 310 142 81 25 49 97 32 76 326 319 75 129 158 120 107 103 76 116 125 65 10 107 153 129 28 68 78 68 94 83 90 100 72 79 108 107 106 107 102 115 120 115 119 129 132 136 139 139 145 141 137 125
344 342 341 340 340 340 341 343 347 353 0 11 264 313 58 44 129 177 217 256 284 109 72 35 40 20 355 349 352 350 3 359 345 309 317 295 318 138 141 67 90 160 78 27 313 36 101 61 86 232 115 91 232 163 166 140 101 114 113 131 99 86 339 230 106 146 166 87 95 96 106 114 112 109 103 100 115 126 135 131 132 137 139 134 142 133 133
342 341 339 339 339 338 339 341 345 348 349 353 332 225 241 154 171 246 290 299 64 43 85 56 43 3 354 334 353 5 7 344 339 336 228 233 298 328 75 64 7 1 99 96 198 126 130 127 154 141 113 82 307 109 27 119 137 195 137 109 152 123 165 107 124 137 57 121 119 108 101 107 119 123 123 121 120 125 125 124 129 129 124 134 131 125 128
338 339 338 336 336 335 335 336 340 346 346 342 332 2 43 31 357 248 264 321 48 8 88 70 56 33 34 44 30 11 339 355 32 62 65 63 50 81 114 124 98 72 90 67 78 89 92 91 94 95 120 109 297 77 72 20 114 171 207 126 7 117 178 141 144 106 90 97 111 122 106 93 105 115 112 120 128 127 128 130 130 130 129 129 130 132 137
335 335 335 334 333 333 331 331 333 341 341 334 316 327 31 63 16 7 348 327 298 109 93 87 81 56 47 47 30 18 16 19 49 63 63 64 77 89 96 102 105 107 94 83 58 83 76 80 76 78 76 90 80 88 116 117 125 134 121 119 143 150 133 126 124 124 149 162 162 151 138 142 129 123 125 126 127 129 128 130 130 131 131 135 136 136 135
332 332 332 331 330 330 329 329 328 334 339 320 271 266 23 31 41 34 2 335 308 101 122 116 88 86 64 45 23 31 27 38 58 69 69 68 65 63 73 80 90 99 100 108 100 83 88 90 78 83 97 123 109 78 98 102 115 109 119 126 163 150 148 163 153 157 164 149 155 175 115 121 127 130 130 130 133 133 133 134 135 134 134 136 137 135 134
331 329 329 330 328 328 328 327 328 329 335 320 213 237 204 142 49 39 14 336 285 90 94 95 81 57 58 17 1 50 44 53 67 72 75 72 70 67 67 65 72 81 78 72 83 83 80 79 81 81 83 356 82 136 152 133 122 112 112 132 120 72 175 45 48 88 118 140 156 152 139 129 132 132 130 132 135 131 128 128 130 132 135 138 137 136 135
330 327 327 327 326 326 327 326 328 329 328 295 214 241 210 134 88 38 12 349 347 301 130 116 89 83 206 357 46 46 52 56 68 69 69 67 63 62 64 68 68 63 70 78 89 88 82 86 81 77 76 293 165 145 135 132 118 105 116 121 102 145 150 88 267 136 138 142 139 129 124 124 128 130 130 130 132 130 129 131 133 133 135 136 134 134 133
328 325 324 323 324 323 324 326 329 329 322 272 267 208 265 118 70 27 359 341 323 318 73 88 99 137 97 56 355 31 36 53 57 65 64 64 63 63 69 72 57 67 87 78 72 72 92 95 99 103 134 10 324 144 127 125 121 120 105 112 123 126 133 139 151 128 134 132 123 122 122 124 129 129 130 134 133 132 129 129 133 132 132 134 132 133 135
325 323 321 321 320 320 319 322 329 325 330 21 29 23 20 6 341 324 326 316 296 215 121 115 128 130 92 116 62 358 0 5 64 86 61 50 76 60 63 56 67 44 46 72 77 87 59 64 69 82 89 1 292 111 127 113 111 119 128 121 114 118 126 124 123 125 129 129 129 122 123 131 140 138 137 140 135 134 133 133 132 130 133 131 132 133 135
322 320 317 316 315 315 315 315 321 324 18 0 320 269 74 64 321 308 326 302 246 47 318 86 87 124 160 91 191 57 338 224 98 86 69 10 59 42 72 56 77 68 8 38 46 75 25 93 103 87 68 307 95 88 88 96 105 113 117 121 121 122 125 125 127 128 133 140 144 137 140 143 139 133 135 134 133 129 131 131 131 134 134 135 136 135 136
319 316 313 311 309 310 310 307 300 287 265 246 211 80 94 28 344 350 325 283 61 71 305 92 139 142 115 193 185 73 335 41 81 54 91 40 336 37 79 80 53 74 9 49 99 118 104 91 84 98 125 63 40 94 86 103 114 117 117 121 121 124 128 130 132 134 139 139 135 130 131 130 132 134 136 134 131 132 132 134 141 141 141 140 142 144 144
317 313 310 305 304 306 301 297 287 234 307 340 325 110 351 337 336 305 301 291 223 148 122 86 295 139 148 181 126 87 348 291 91 23 77 74 339 42 74 62 46 72 58 285 74 52 77 51 315 123 85 66 69 78 107 130 125 123 125 128 133 134 135 132 132 133 135 135 133 131 131 135 135 138 138 136 137 140 141 144 147 147 147 149 148 149 155
315 312 307 303 301 291 270 223 320 312 207 308 356 344 330 318 313 297 256 309 340 141 155 112 227 163 170 151 132 96 272 92 79 87 55 175 109 28 10 81 85 52 306 358 77 63 64 353 282 98 270 105 59 89 128 136 132 134 135 136 141 143 142 141 139 138 136 134 133 135 136 137 136 136 139 141 142 146 148 149 152 153 150 149 154 155 168
314 310 300 287 273 210 248 14 19 2 9 319 295 303 290 285 242 218 217 208 84 343 341 162 187 125 334 72 78 104 266 133 226 122 62 58 74 9 18 84 76 79 142 74 57 63 65 287 292 84 32 76 93 105 123 136 139 140 140 142 141 130 131 131 135 132 130 130 133 137 141 141 140 144 143 146 148 150 152 155 156 157 155 157 158 166 170
315 298 278 200 210 222 215 176 54 355 325 295 289 276 184 232 196 148 134 99 17 294 88 270 103 102 238 223 132 53 278 108 279 123 111 37 197 89 6 52 57 262 90 65 69 345 334 36 49 76 77 67 97 122 129 135 134 136 137 137 133 134 132 135 140 140 138 141 145 149 148 147 146 149 149 148 152 155 157 157 160 160 159 162 164 167 172
291 254 218 218 230 207 4 37 5 322 289 262 236 255 124 351 210 170 74 342 225 174 30 266 128 146 169 133 90 54 350 153 155 187 147 49 300 112 266 122 123 251 111 157 113 265 117 86 91 106 103 128 133 127 137 133 134 138 137 134 136 134 139 142 149 148 151 151 150 153 153 151 151 151 153 153 157 158 160 162 162 161 161 159 158 171 190
13 354 0 221 206 27 336 327 333 307 245 231 108 289 148 10 258 154 126 200 156 81 231 165 64 87 341 170 154 135 54 279 188 139 117 113 329 4 105 84 94 220 127 116 97 264 231 127 142 132 132 160 143 144 148 146 143 141 140 141 141 143 145 147 148 151 147 143 145 146 147 147 150 152 156 158 161 161 160 162 164 167 169 168 142 175 174
10 337 301 341 5 332 321 314 297 236 266 207 166 76 284 169 52 12 255 217 206 108 342 67 154 164 142 261 237 144 126 273 1 3 65 73 40 273 164 95 316 132 131 105 119 226 144 107 171 178 152 157 149 158 153 152 146 147 145 147 147 147 149 149 149 149 146 146 148 150 152 155 157 159 159 161 164 165 167 170 174 176 177 165 170 185 156
324 302 312 302 292 287 285 235 279 147 61 341 225 184 356 358 104 219 248 241 156 153 150 193 182 171 140 116 65 89 122 335 321 270 172 121 64 333 88 125 199 226 121 65 127 212 201 156 172 143 141 152 152 158 161 156 153 152 152 152 153 152 152 153 152 150 153 153 154 154 157 161 162 162 164 165 168 168 170 174 175 173 179 166 163 162 162
292 258 247 284 258 229 273 212 73 302 192 165 173 171 197 212 207 224 169 166 72 260 115 347 51 60 83 234 115 20 56 41 256 170 197 102 152 248 148 134 211 107 88 150 218 163 201 168 193 148 150 154 159 164 166 159 157 156 156 157 158 160 159 159 157 155 158 162 163 163 164 168 167 168 170 174 175 175 175 177 178 175 177 172 172 164 162
251 253 233 228 228 93 278 198 135 116 9 237 188 198 188 205 183 187 226 170 153 185 159 178 167 193 147 318 169 139 149 163 243 78 73 114 229 122 161 156 83 72 138 191 212 196 203 133 174 139 154 152 162 167 166 161 164 161 161 166 166 168 166 166 165 165 165 167 169 171 172 177 178 176 184 192 194 194 189 187 185 183 176 176 172 169 160
275 220 224 197 159 39 159 327 179 226 217 198 216 225 178 202 187 194 189 104 190 148 161 192 171 194 132 121 224 77 270 138 160 238 132 177 128 74 185 103 115 171 200 174 197 188 216 218 161 152 156 162 167 169 168 167 169 168 167 169 174 176 175 173 173 174 174 176 176 175 182 184 185 185 190 195 199 201 192 185 173 177 178 182 176 172 163
263 270 195 163 338 281 227 188 142 218 234 206 207 219 216 229 205 195 98 123 170 142 173 170 178 158 127 130 261 133 151 175 153 54 82 225 173 117 57 76 200 187 177 226 202 212 212 154 162 171 169 168 168 169 170 170 171 170 170 174 177 179 182 180 178 179 180 185 186 188 188 188 190 186 187 189 187 189 193 185 177 185 180 185 181 182 169
253 229 258 287 246 164 235 214 200 218 16 192 220 222 242 0 15 29 62 231 197 135 124 149 166 186 162 159 159 155 180 190 122 102 252 191 114 98 284 226 191 190 190 213 222 226 219 157 157 167 167 166 169 170 172 172 176 176 177 176 177 183 185 187 185 186 184 185 185 190 189 190 191 191 185 181 182 184 183 179 181 182 182 188 186 186 173
258 28 275 204 211 173 198 215 297 270 219 279 42 350 359 337 247 197 143 186 30 166 166 154 158 142 139 63 278 157 139 155 130 126 351 91 115 161 163 206 224 206 225 232 219 195 164 130 156 163 167 169 170 171 174 176 178 179 179 179 182 185 188 191 191 192 189 189 189 192 193 193 193 191 192 192 186 179 179 182 182 184 185 189 189 183 181
313 287 236 252 270 203 222 81 192 222 179 164 177 217 203 214 221 137 102 149 183 181 169 193 173 179 152 145 194 155 172 171 194 145 161 201 195 179 183 203 189 222 215 226 259 113 140 129 148 162 167 170 173 175 176 177 177 180 182 183 184 187 189 193 196 195 193 195 196 197 198 195 197 198 198 192 190 180 176 174 177 179 184 186 187 189 190
241 208 220 237 205 214 170 204 223 228 186 179 199 209 204 235 234 123 123 165 177 163 158 44 342 231 120 168 182 196 187 172 168 137 197 202 195 178 213 223 197 229 148 169 199 180 150 129 149 164 171 174 175 177 176 177 178 183 184 185 185 187 190 193 196 197 197 198 200 202 199 191 199 198 192 190 192 174 166 173 178 181 184 188 189 193 199
211 277 264 272 262 188 157 202 203 209 205 203 205 197 198 221 234 167 160 179 162 171 182 191 173 157 157 180 171 181 177 122 193 197 207 208 178 196 213 227 213 222 238 118 155 121 141 154 168 171 173 176 176 178 177 177 178 184 184 185 185 187 190 194 195 194 194 197 198 197 196 198 201 195 190 192 182 172 171 169 179 184 184 190 193 204 201
211 212 228 207 223 262 237 290 304 273 279 166 199 117 195 231 169 88 150 197 177 190 194 168 171 171 163 188 194 113 104 183 218 168 218 214 174 219 221 233 255 229 204 204 189 160 159 165 174 174 177 177 177 178 177 176 178 184 186 187 186 188 189 190 191 189 187 187 188 191 197 199 193 187 180 184 183 186 188 183 179 185 187 193 201 208 211